Current Version              Previous Version:    01  02  03  04  05  06  07  08  09  10  11  12  13  14  15  16  17  18  19  20  21  22  23  24  25  26  27  28  29  30  
   31  32  33  34  35  36  37  38  39  40  41  42  43  44  45  46  47  48  49  50  51  52  53  54  55  56  57  58  59  60  

[Printable]
084
ASUS44 KEWX 260402
RWRTX
SOUTH TEXAS REGIONAL WEATHER ROUNDUP
NATIONAL WEATHER SERVICE AUSTIN/SAN ANTONIO TX
1100 PM CDT FRI JUL 25 2014

NOTE: "FAIR" INDICATED FEW OR NO CLOUDS BELOW 12,000 FEET WITH NO
SIGNIFICANT WEATHER AND/OR OBSTRUCTIONS TO VISIBILITY.

* - THESE STATIONS ARE NOT NWS OR FAA STATIONS...AND ARE NOT SUBJECT
    TO NWS AND FAA QUALITY CONTROL.

TXZ171-172-183>190-260500-
TEXAS HILL COUNTRY AND EDWARDS PLATEAU

CITY           SKY/WX    TMP DP  RH WIND       PRES   REMARKS
JUNCTION       CLEAR     86  64  47 S10       30.01R
*LLANO         CLEAR     82  64  54 CALM      30.01R
BURNET         CLEAR     84  66  54 SE8       30.02R
*HORSESHOE BAY CLEAR     85  64  49 SE8       29.99R
*KERRVILLE     CLEAR     80  69  69 S6        30.03R
*FREDERICKSBRG CLEAR     81  62  53 S8        30.02S
*ROCKSPRINGS   CLEAR     81  64  57 SE6       30.07R
*BOERNE STAGE  CLEAR     81  66  61 S6        30.03R
*CASTROVILLE   CLEAR     83  68  59 SE7       30.01R
HONDO          CLEAR     82  70  66 SE10      30.01R
*UVALDE        CLEAR     83  69  62 SE8       29.99R
DEL RIO        CLEAR     89  66  46 E12G20    29.93R HX  91
LAUGHLIN AFB   NOT AVBL
CARRIZO SPRGS  CLEAR     81  72  74 SE8       29.95R
$$

TXZ173-191>194-202-209-217>225-228-260500-
CENTRAL AND SOUTH CENTRAL TEXAS

CITY           SKY/WX    TMP DP  RH WIND       PRES   REMARKS
GEORGETOWN     CLEAR     84  72  65 SE9       29.99R
AUSTIN/BERGSTM PTCLDY    85  70  60 S9        29.98R
AUSTIN/MABRY   CLEAR     86  70  58 VRB7      29.99R HX  90
*AUSTIN/EXEC   MOCLDY    82  70  65 SE8       29.99R
*LAGO VISTA    CLEAR     85  68  56 SE7G16    30.01S
SAN MARCOS     CLEAR     84  66  54 S12       30.01R
NEW BRAUNFELS  CLEAR     84  71  65 S13       29.98R
RANDOLPH AFB   CLEAR     84  69  61 S13       30.00R
PT SAN ANTONIO CLEAR     83  70  64 S13       29.98R
SAN ANTONIO    PTCLDY    86  69  56 S14       30.00R HX  90
STINSON FIELD  CLEAR     84  67  56 SE9       29.98R
*PLEASANTON    CLEAR     82  69  63 SE8       29.98S
*LA GRANGE     CLEAR     83  75  75 S7        29.98R HX  91
*GIDDINGS      CLEAR     82  71  67 CALM      30.04R
*GONZALES      CLEAR     84  73  69 S13       29.99R HX  90
$$

TXZ163>164-176>182-195>201-210>213-226-227-235-260500-
SOUTHEAST TEXAS

CITY           SKY/WX    TMP DP  RH WIND       PRES   REMARKS
COLLEGE STN    CLEAR     83  72  69 S7        29.99R
*BRYAN         CLEAR     80  73  78 S6        29.99R
*CALDWELL      CLEAR     82  72  69 SE7       30.01S
*CROCKETT      CLEAR     81  79  94 S3        30.01S
*BRENHAM       CLEAR     83  72  69 S8        30.00R
HUNTSVILLE     CLEAR     84  74  71 S8        30.00R HX  91
CONROE         CLEAR     81  74  79 SE7       30.01R
HOUSTON BUSH   PTCLDY    83  75  77 S7        30.00R HX  90
HOUSTON HOBBY  PTCLDY    81  75  82 S8        29.99S
*HOUSTON SW AP CLEAR     78  74  88 CALM      30.01S
PEARLAND       CLEAR     82  75  79 S3        30.01S
HOUSTON HOOKS  CLEAR     83  75  77 S7        30.00R HX  90
ELLINGTON FLD  CLEAR     82  73  74 S7        30.01S
SUGAR LAND     CLEAR     82  76  81 S9        30.00R
*HOUSTON EXEC  CLEAR     79  75  89 S8        30.01S
*CLEVELAND MUN CLEAR     79  76  91 CALM      30.01R
*WHARTON       CLEAR     78  75  90 SE5       30.01S
$$

TXZ214>216-236>238-260500-
THE UPPER TEXAS COAST

CITY           SKY/WX    TMP DP  RH WIND       PRES   REMARKS
*ORANGE        CLEAR     82  75  81 S6        30.01S
PORT ARTHUR    CLEAR     81  76  84 SW5       30.00R
GALVESTON      CLEAR     85  76  74 S12       30.02R HX  94
ANGLETON       CLEAR     80  76  87 S5        30.01R
*BAY CITY      CLEAR     80  80 100 SE3       30.01S
PALACIOS       PTCLDY    84  75  74 S12       30.01R HX  92
$$

TXZ229>234-239>247-260500-
TEXAS COASTAL BEND AND RIO GRANDE PLAINS

CITY           SKY/WX    TMP DP  RH WIND       PRES   REMARKS
VICTORIA       CLEAR     82  76  81 SE10      30.00S
*BEEVILLE      CLEAR     82  75  80 SE9       29.99S
ROCKPORT       CLEAR     84  77  79 S10       29.99R HX  94
*PORT ARANSAS  CLEAR     82  78  87 S13G18    29.99R HX  92
*PORT LAVACA   CLEAR     79  76  90 S5        30.00R
*INGLESIDE     CLEAR     85  77  78 S13G21    29.99R HX  95
CORPUS CHRISTI PTCLDY    82  77  84 S14       29.98R HX  90
CORPUS NAS     CLEAR     83  79  88 S17G23    29.99R HX  94
*ROBSTOWN      NOT AVBL
ALICE          CLEAR     81  75  82 SE12      29.98R
KINGSVILLE NAS CLEAR     83  77  82 SE13      29.98R HX  92
COTULLA        CLEAR     82  71  69 SE12      29.97R
*FAITH RANCH   CLEAR     82  72  69 E12G17    29.94R
LAREDO         CLEAR     87  71  58 SE9       29.97R HX  92
$$

TXZ248>255-260500-
DEEP SOUTH TEXAS

CITY           SKY/WX    TMP DP  RH WIND       PRES   REMARKS
BROWNSVILLE    CLEAR     82  76  81 SE12      30.00R
PORT ISABEL    CLEAR     84  75  74 S12       29.99R HX  92
*SOUTH PADRE     N/A     81  77  89 S10       30.00R
HARLINGEN      CLEAR     82  75  79 SE15      29.98R
*HEBBRONVILLE  CLEAR     87  63  44 SE15G21   29.98R
MCALLEN        CLEAR     83  74  74 SE17G24   29.98R
*WESLACO       CLEAR     83  73  71 S13G22    29.98R
FALFURRIAS     CLEAR     82  71  71 SE9       29.97R
EDINBURG       CLEAR     85  72  65 SE16      29.98R HX  90
*ZAPATA        CLEAR     88  62  41 SE14G23   29.94R
$$

TXZ213>215-236>238-242>244-246-247-251-254-255-260500-
CMAN STATIONS

STATION/POSITION TIME  TEMP    WIND        PRES    WAVE
                       AIR SEA DIR/SP/G            HT/PER
                 (UTC) (F)     (DEG/KT/KT) (MB)    (FT/S)
SABINE PASS      0318   83 88  210/  6/  9 1016.1
SEA RIM ST PARK  0300   84     210/  8/ 12 1016.5
NORTH JETTY/GLS  0300   85 93  220/ 12/ 14   N/A
EAGLE POINT      0300   84 90  230/  8/ 11 1016.0
MORGANS POINT    0318   85 91  210/  6/  9 1015.7
MISSION/ARANSAS  0300   84     150/ 17     1016.0
PORT O`CONNOR    0318          160/ 17/ 19   N/A
PORT ARANSAS     0300   83 87  140/ 15/ 17 1015.8
MALAQUITE BEACH  0300   82 84  140/ 15/ 17 1014.8
BAFFIN BAY       0300   82 84  150/ 14/ 20 1015.2
PORT ISABEL      0300   83 82  150/ 11/ 15 1016.1
$$

GMZ080-GMZ150>470-260500-
OFFSHORE BUOY REPORTS

STATION/POSITION TIME  TEMP    WIND        PRES    WAVE
                       AIR SEA DIR/SP/G            HT/PER
                 (UTC) (F)     (DEG/KT/KT) (MB)    (FT/S)
90 E PT ARANSAS  0400   84 84  160/ 12/ 12 1017.0    2/ 5
35 NE PT MANSFLD 0300   84 82  160/ 16/ 17 1015.0    2/ 4
200 E PT ISABEL  0300   85 86  160/  8/ 10 1016.8    1/ 9
$$